Simultaneous Nadir Overpasses (SNOs) Predictions

Prediction of SNOs between GOES-15 and TERRA Satellite Orbit:

Table of predicted SNOs for the next 14.0 days since TLE Epoch: 4/20/2017
Index Date Time (GOES-15) GOES-15 Lat,Lon TERRA Lat,Lon Distance(km) Time Diff (sec)
1 04/22/2017 07:24:46 0.07,-135.47 0.54,-133.35 241.90 80
2 04/22/2017 19:46:02 -0.08,-135.50 0.55,-138.51 341.18 80
3 04/24/2017 19:33:51 -0.08,-135.50 -0.08,-135.55 6.01 80
4 04/26/2017 19:19:00 -0.08,-135.48 -0.71,-132.60 328.80 80
5 04/27/2017 07:40:24 0.08,-135.44 -0.40,-137.79 265.82 80
6 04/29/2017 07:30:52 0.08,-135.42 0.19,-134.82 67.86 80
7 05/01/2017 07:18:41 0.09,-135.39 0.84,-131.87 400.81 80
8 05/01/2017 19:39:57 -0.09,-135.42 0.23,-137.03 182.48 80
9 05/03/2017 19:25:05 -0.10,-135.39 -0.37,-134.07 150.14 80
10 05/04/2017 07:46:29 0.10,-135.34 -0.73,-139.26 445.34 80




NCC Satellite Simultaneous Nadir Overpasses (SNOs) Prediction Service
